Time,TemperatureF,DewpointF,PressureIn,WindDirection,WindDirectionDegrees,WindSpeedMPH,WindSpeedGustMPH,Humidity,HourlyPrecipIn,Conditions,Clouds,dailyrainin,SoftwareType,DateUTC
2013-01-20 00:04:00,47.0,39.1,29.88,West,270,4.0,17.0,74,0.00,,,0.00,Weather View 32 v70,2013-01-20 05:04:00,
2013-01-20 00:09:00,47.0,39.5,29.88,NW,315,4.0,17.0,75,0.00,,,0.00,Weather View 32 v70,2013-01-20 05:09:00,
2013-01-20 00:15:00,47.0,39.8,29.88,West,270,8.0,13.0,76,0.00,,,0.00,Weather View 32 v70,2013-01-20 05:15:00,
2013-01-20 00:19:00,47.0,39.8,29.88,West,270,8.0,13.0,76,0.00,,,0.00,Weather View 32 v70,2013-01-20 05:19:00,
2013-01-20 00:20:00,46.0,38.8,29.88,West,270,2.0,13.0,76,0.00,,,0.00,Weather View 32 v70,2013-01-20 05:20:00,
2013-01-20 00:25:00,47.0,40.2,29.88,West,270,6.0,14.0,77,0.00,,,0.00,Weather View 32 v70,2013-01-20 05:25:00,
2013-01-20 00:30:00,47.0,40.2,29.88,SW,225,4.0,14.0,77,0.00,,,0.00,Weather View 32 v70,2013-01-20 05:30:00,
2013-01-20 00:35:00,46.0,39.2,29.89,NNW,337,6.0,14.0,77,0.00,,,0.00,Weather View 32 v70,2013-01-20 05:35:00,
2013-01-20 00:44:00,46.0,39.5,29.89,WSW,247,3.0,14.0,78,0.00,,,0.00,Weather View 32 v70,2013-01-20 05:44:00,
2013-01-20 00:50:00,46.0,39.8,29.89,West,270,0.0,14.0,79,0.00,,,0.00,Weather View 32 v70,2013-01-20 05:50:00,
2013-01-20 00:55:00,46.0,39.8,29.89,SW,225,3.0,14.0,79,0.00,,,0.00,Weather View 32 v70,2013-01-20 05:55:00,
2013-01-20 01:04:00,46.0,39.8,29.89,WSW,247,5.0,14.0,79,0.00,,,0.00,Weather View 32 v70,2013-01-20 06:04:00,
2013-01-20 01:10:00,46.0,40.2,29.89,West,270,4.0,14.0,80,0.00,,,0.00,Weather View 32 v70,2013-01-20 06:10:00,
2013-01-20 01:15:00,46.0,40.5,29.89,WSW,247,2.0,14.0,81,0.00,,,0.00,Weather View 32 v70,2013-01-20 06:15:00,
2013-01-20 01:20:00,45.0,39.5,29.89,WSW,247,4.0,14.0,81,0.00,,,0.00,Weather View 32 v70,2013-01-20 06:20:00,
2013-01-20 01:30:00,45.0,39.5,29.89,SW,225,6.0,13.0,81,0.00,,,0.00,Weather View 32 v70,2013-01-20 06:30:00,
2013-01-20 01:35:00,45.0,39.5,29.89,West,270,4.0,13.0,81,0.00,,,0.00,Weather View 32 v70,2013-01-20 06:35:00,
2013-01-20 01:44:00,45.0,39.5,29.89,West,270,8.0,11.0,81,0.00,,,0.00,Weather View 32 v70,2013-01-20 06:44:00,
2013-01-20 01:49:00,45.0,39.2,29.89,West,270,2.0,12.0,80,0.00,,,0.00,Weather View 32 v70,2013-01-20 06:49:00,
2013-01-20 01:55:00,45.0,39.2,29.90,WNW,292,3.0,12.0,80,0.00,,,0.00,Weather View 32 v70,2013-01-20 06:55:00,
2013-01-20 02:00:00,45.0,39.2,29.90,West,270,10.0,12.0,80,0.00,,,0.00,Weather View 32 v70,2013-01-20 07:00:00,
2013-01-20 02:05:00,45.0,38.9,29.90,West,270,3.0,12.0,79,0.00,,,0.00,Weather View 32 v70,2013-01-20 07:05:00,
2013-01-20 02:10:00,45.0,38.5,29.91,West,270,9.0,12.0,78,0.00,,,0.00,Weather View 32 v70,2013-01-20 07:10:00,
2013-01-20 02:15:00,45.0,37.9,29.91,West,270,9.0,16.0,76,0.00,,,0.00,Weather View 32 v70,2013-01-20 07:15:00,
2013-01-20 02:20:00,45.0,36.9,29.91,WSW,247,6.0,16.0,73,0.00,,,0.00,Weather View 32 v70,2013-01-20 07:20:00,
2013-01-20 02:29:00,45.0,37.2,29.92,West,270,4.0,16.0,74,0.00,,,0.00,Weather View 32 v70,2013-01-20 07:29:00,
2013-01-20 02:34:00,45.0,37.2,29.93,West,270,3.0,16.0,74,0.00,,,0.00,Weather View 32 v70,2013-01-20 07:34:00,
2013-01-20 02:39:00,45.0,37.2,29.93,WNW,292,5.0,16.0,74,0.00,,,0.00,Weather View 32 v70,2013-01-20 07:39:00,
2013-01-20 02:45:00,45.0,36.9,29.93,WNW,292,9.0,16.0,73,0.00,,,0.00,Weather View 32 v70,2013-01-20 07:45:00,
2013-01-20 02:50:00,45.0,36.5,29.93,West,270,6.0,16.0,72,0.00,,,0.00,Weather View 32 v70,2013-01-20 07:50:00,
2013-01-20 02:55:00,44.0,35.5,29.94,WSW,247,7.0,16.0,72,0.00,,,0.00,Weather View 32 v70,2013-01-20 07:55:00,
2013-01-20 03:00:00,44.0,35.5,29.94,West,270,3.0,16.0,72,0.00,,,0.00,Weather View 32 v70,2013-01-20 08:00:00,
2013-01-20 03:05:00,44.0,35.5,29.95,NNW,337,7.0,19.0,72,0.00,,,0.00,Weather View 32 v70,2013-01-20 08:05:00,
2013-01-20 03:10:00,44.0,35.2,29.95,NW,315,10.0,19.0,71,0.00,,,0.00,Weather View 32 v70,2013-01-20 08:10:00,
2013-01-20 03:15:00,43.0,33.1,29.95,WNW,292,9.0,19.0,68,0.00,,,0.00,Weather View 32 v70,2013-01-20 08:15:00,
2013-01-20 03:21:00,43.0,31.6,29.95,West,270,10.0,19.0,64,0.00,,,0.00,Weather View 32 v70,2013-01-20 08:21:00,
2013-01-20 03:29:00,43.0,28.8,29.95,WSW,247,4.0,20.0,57,0.00,,,0.00,Weather View 32 v70,2013-01-20 08:29:00,
2013-01-20 03:35:00,43.0,27.5,29.95,NNW,337,10.0,20.0,54,0.00,,,0.00,Weather View 32 v70,2013-01-20 08:35:00,
2013-01-20 03:40:00,42.0,25.6,29.95,WSW,247,3.0,22.0,52,0.00,,,0.00,Weather View 32 v70,2013-01-20 08:40:00,
2013-01-20 03:45:00,42.0,24.7,29.95,West,270,7.0,22.0,50,0.00,,,0.00,Weather View 32 v70,2013-01-20 08:45:00,
2013-01-20 03:50:00,42.0,25.2,29.96,NW,315,10.0,22.0,51,0.00,,,0.00,Weather View 32 v70,2013-01-20 08:50:00,
2013-01-20 03:55:00,42.0,25.6,29.97,NW,315,6.0,22.0,52,0.00,,,0.00,Weather View 32 v70,2013-01-20 08:55:00,
2013-01-20 04:00:00,41.0,25.6,29.97,North,360,4.0,22.0,54,0.00,,,0.00,Weather View 32 v70,2013-01-20 09:00:00,
2013-01-20 04:09:00,41.0,25.2,29.97,WNW,292,7.0,22.0,53,0.00,,,0.00,Weather View 32 v70,2013-01-20 09:09:00,
2013-01-20 04:14:00,40.0,22.4,29.97,NW,315,5.0,22.0,49,0.00,,,0.00,Weather View 32 v70,2013-01-20 09:14:00,
2013-01-20 04:19:00,40.0,21.4,29.97,NW,315,12.0,22.0,47,0.00,,,0.00,Weather View 32 v70,2013-01-20 09:19:00,
2013-01-20 04:24:00,40.0,20.9,29.97,West,270,7.0,22.0,46,0.00,,,0.00,Weather View 32 v70,2013-01-20 09:24:00,
2013-01-20 04:29:00,40.0,21.4,29.97,West,270,4.0,22.0,47,0.00,,,0.00,Weather View 32 v70,2013-01-20 09:29:00,
2013-01-20 04:35:00,40.0,22.4,29.97,West,270,12.0,22.0,49,0.00,,,0.00,Weather View 32 v70,2013-01-20 09:35:00,
2013-01-20 04:40:00,39.0,22.4,29.97,NNW,337,12.0,22.0,51,0.00,,,0.00,Weather View 32 v70,2013-01-20 09:40:00,
2013-01-20 04:45:00,39.0,23.3,29.97,WNW,292,6.0,22.0,53,0.00,,,0.00,Weather View 32 v70,2013-01-20 09:45:00,
2013-01-20 04:50:00,39.0,23.7,29.97,NW,315,3.0,22.0,54,0.00,,,0.00,Weather View 32 v70,2013-01-20 09:50:00,
2013-01-20 04:55:00,38.0,23.7,29.97,WNW,292,4.0,19.0,56,0.00,,,0.00,Weather View 32 v70,2013-01-20 09:55:00,
2013-01-20 05:00:00,38.0,23.7,29.97,West,270,7.0,19.0,56,0.00,,,0.00,Weather View 32 v70,2013-01-20 10:00:00,
2013-01-20 05:09:00,38.0,24.9,29.97,West,270,1.0,19.0,59,0.00,,,0.00,Weather View 32 v70,2013-01-20 10:09:00,
2013-01-20 05:14:00,38.0,25.7,29.98,West,270,4.0,19.0,61,0.00,,,0.00,Weather View 32 v70,2013-01-20 10:14:00,
2013-01-20 05:19:00,37.0,24.8,29.98,WNW,292,6.0,19.0,61,0.00,,,0.00,Weather View 32 v70,2013-01-20 10:19:00,
2013-01-20 05:24:00,37.0,25.2,29.98,NNW,337,6.0,19.0,62,0.00,,,0.00,Weather View 32 v70,2013-01-20 10:24:00,
2013-01-20 05:29:00,37.0,25.9,29.98,WNW,292,5.0,19.0,64,0.00,,,0.00,Weather View 32 v70,2013-01-20 10:29:00,
2013-01-20 05:35:00,36.0,25.0,29.99,West,270,6.0,19.0,64,0.00,,,0.00,Weather View 32 v70,2013-01-20 10:35:00,
2013-01-20 05:40:00,36.0,25.4,29.99,West,270,7.0,18.0,65,0.00,,,0.00,Weather View 32 v70,2013-01-20 10:40:00,
2013-01-20 05:45:00,36.0,25.4,29.99,WNW,292,6.0,18.0,65,0.00,,,0.00,Weather View 32 v70,2013-01-20 10:45:00,
2013-01-20 05:50:00,35.0,24.8,29.99,WNW,292,6.0,18.0,66,0.00,,,0.00,Weather View 32 v70,2013-01-20 10:50:00,
2013-01-20 05:55:00,35.0,25.1,29.99,WSW,247,4.0,18.0,67,0.00,,,0.00,Weather View 32 v70,2013-01-20 10:55:00,
2013-01-20 06:00:00,35.0,25.1,29.99,West,270,9.0,18.0,67,0.00,,,0.00,Weather View 32 v70,2013-01-20 11:00:00,
2013-01-20 06:09:00,34.0,24.2,30.00,West,270,6.0,18.0,67,0.00,,,0.00,Weather View 32 v70,2013-01-20 11:09:00,
2013-01-20 06:14:00,34.0,21.6,30.00,SSW,202,6.0,18.0,60,0.00,,,0.00,Weather View 32 v70,2013-01-20 11:14:00,
2013-01-20 06:19:00,34.0,18.6,30.01,NW,315,4.0,18.0,53,0.00,,,0.00,Weather View 32 v70,2013-01-20 11:19:00,
2013-01-20 06:24:00,33.0,17.3,30.01,West,270,2.0,18.0,52,0.00,,,0.00,Weather View 32 v70,2013-01-20 11:24:00,
2013-01-20 06:29:00,33.0,17.3,30.01,NW,315,2.0,16.0,52,0.00,,,0.00,Weather View 32 v70,2013-01-20 11:29:00,
2013-01-20 06:35:00,33.0,17.7,30.01,West,270,6.0,16.0,53,0.00,,,0.00,Weather View 32 v70,2013-01-20 11:35:00,
2013-01-20 06:40:00,32.0,16.8,30.01,West,270,3.0,16.0,53,0.00,,,0.00,Weather View 32 v70,2013-01-20 11:40:00,
2013-01-20 06:45:00,32.0,16.4,30.01,WNW,292,6.0,16.0,52,0.00,,,0.00,Weather View 32 v70,2013-01-20 11:45:00,
2013-01-20 06:50:00,32.0,16.4,30.02,NW,315,7.0,16.0,52,0.00,,,0.00,Weather View 32 v70,2013-01-20 11:50:00,
2013-01-20 06:55:00,32.0,16.8,30.02,NW,315,7.0,16.0,53,0.00,,,0.00,Weather View 32 v70,2013-01-20 11:55:00,
2013-01-20 07:04:00,31.0,16.3,30.02,North,360,3.0,16.0,54,0.00,,,0.00,Weather View 32 v70,2013-01-20 12:04:00,
2013-01-20 07:10:00,31.0,16.7,30.02,NW,315,1.0,16.0,55,0.00,,,0.00,Weather View 32 v70,2013-01-20 12:10:00,
2013-01-20 07:19:00,30.0,14.9,30.03,North,360,3.0,16.0,53,0.00,,,0.00,Weather View 32 v70,2013-01-20 12:19:00,
2013-01-20 07:24:00,30.0,13.1,30.03,NNW,337,9.0,16.0,49,0.00,,,0.00,Weather View 32 v70,2013-01-20 12:24:00,
2013-01-20 07:29:00,30.0,13.6,30.04,NW,315,1.0,15.0,50,0.00,,,0.00,Weather View 32 v70,2013-01-20 12:29:00,
2013-01-20 07:34:00,29.0,10.8,30.04,North,360,5.0,15.0,46,0.00,,,0.00,Weather View 32 v70,2013-01-20 12:34:00,
2013-01-20 07:40:00,29.0,10.3,30.04,NNW,337,7.0,15.0,45,0.00,,,0.00,Weather View 32 v70,2013-01-20 12:40:00,
2013-01-20 07:45:00,29.0,10.3,30.04,NW,315,12.0,15.0,45,0.00,,,0.00,Weather View 32 v70,2013-01-20 12:45:00,
2013-01-20 07:50:00,29.0,10.3,30.04,NW,315,6.0,15.0,45,0.00,,,0.00,Weather View 32 v70,2013-01-20 12:50:00,
2013-01-20 07:55:00,28.0,9.9,30.04,NW,315,7.0,15.0,46,0.00,,,0.00,Weather View 32 v70,2013-01-20 12:55:00,
2013-01-20 08:00:00,28.0,9.9,30.04,WNW,292,5.0,15.0,46,0.00,,,0.00,Weather View 32 v70,2013-01-20 13:00:00,
2013-01-20 08:05:00,28.0,9.9,30.04,West,270,6.0,15.0,46,0.00,,,0.00,Weather View 32 v70,2013-01-20 13:05:00,
2013-01-20 08:14:00,28.0,10.8,30.04,WNW,292,5.0,15.0,48,0.00,,,0.00,Weather View 32 v70,2013-01-20 13:14:00,
2013-01-20 08:19:00,28.0,10.8,30.04,NNW,337,8.0,15.0,48,0.00,,,0.00,Weather View 32 v70,2013-01-20 13:19:00,
2013-01-20 08:24:00,28.0,11.3,30.05,North,360,5.0,15.0,49,0.00,,,0.00,Weather View 32 v70,2013-01-20 13:24:00,
2013-01-20 08:29:00,28.0,11.7,30.05,West,270,9.0,15.0,50,0.00,,,0.00,Weather View 32 v70,2013-01-20 13:29:00,
2013-01-20 08:34:00,28.0,11.7,30.05,North,360,3.0,15.0,50,0.00,,,0.00,Weather View 32 v70,2013-01-20 13:34:00,
2013-01-20 08:40:00,28.0,11.7,30.05,NNW,337,7.0,15.0,50,0.00,,,0.00,Weather View 32 v70,2013-01-20 13:40:00,
2013-01-20 08:45:00,28.0,11.7,30.06,NW,315,3.0,15.0,50,0.00,,,0.00,Weather View 32 v70,2013-01-20 13:45:00,
2013-01-20 08:50:00,28.0,11.7,30.06,NW,315,3.0,15.0,50,0.00,,,0.00,Weather View 32 v70,2013-01-20 13:50:00,
2013-01-20 08:55:00,28.0,11.7,30.07,WNW,292,6.0,15.0,50,0.00,,,0.00,Weather View 32 v70,2013-01-20 13:55:00,
2013-01-20 09:00:00,28.0,11.7,30.07,NNW,337,6.0,15.0,50,0.00,,,0.00,Weather View 32 v70,2013-01-20 14:00:00,
2013-01-20 09:09:00,29.0,13.6,30.08,WNW,292,2.0,15.0,52,0.00,,,0.00,Weather View 32 v70,2013-01-20 14:09:00,
2013-01-20 09:14:00,29.0,13.6,30.09,NW,315,4.0,15.0,52,0.00,,,0.00,Weather View 32 v70,2013-01-20 14:14:00,
2013-01-20 09:19:00,29.0,14.4,30.09,NW,315,3.0,15.0,54,0.00,,,0.00,Weather View 32 v70,2013-01-20 14:19:00,
2013-01-20 09:24:00,29.0,14.8,30.09,West,270,4.0,15.0,55,0.00,,,0.00,Weather View 32 v70,2013-01-20 14:24:00,
2013-01-20 09:29:00,30.0,14.9,30.10,NNW,337,6.0,15.0,53,0.00,,,0.00,Weather View 32 v70,2013-01-20 14:29:00,
2013-01-20 09:35:00,30.0,14.5,30.10,NNW,337,9.0,12.0,52,0.00,,,0.00,Weather View 32 v70,2013-01-20 14:35:00,
2013-01-20 09:40:00,30.0,13.6,30.10,NNW,337,7.0,15.0,50,0.00,,,0.00,Weather View 32 v70,2013-01-20 14:40:00,
2013-01-20 09:45:00,30.0,13.6,30.10,West,270,4.0,15.0,50,0.00,,,0.00,Weather View 32 v70,2013-01-20 14:45:00,
2013-01-20 09:50:00,31.0,14.5,30.10,North,360,9.0,15.0,50,0.00,,,0.00,Weather View 32 v70,2013-01-20 14:50:00,
2013-01-20 09:55:00,31.0,13.6,30.10,NW,315,7.0,15.0,48,0.00,,,0.00,Weather View 32 v70,2013-01-20 14:55:00,
2013-01-20 10:04:00,31.0,13.6,30.12,NNW,337,5.0,15.0,48,0.00,,,0.00,Weather View 32 v70,2013-01-20 15:04:00,
2013-01-20 10:09:00,31.0,14.1,30.12,NW,315,6.0,15.0,49,0.00,,,0.00,Weather View 32 v70,2013-01-20 15:09:00,
2013-01-20 10:14:00,32.0,14.5,30.12,NW,315,7.0,15.0,48,0.00,,,0.00,Weather View 32 v70,2013-01-20 15:14:00,
2013-01-20 10:19:00,32.0,14.5,30.12,NNE,22,6.0,15.0,48,0.00,,,0.00,Weather View 32 v70,2013-01-20 15:19:00,
2013-01-20 10:25:00,32.0,14.0,30.12,NNW,337,5.0,15.0,47,0.00,,,0.00,Weather View 32 v70,2013-01-20 15:25:00,
2013-01-20 10:35:00,32.0,14.5,30.13,NNW,337,6.0,15.0,48,0.00,,,0.00,Weather View 32 v70,2013-01-20 15:35:00,
2013-01-20 10:40:00,32.0,13.0,30.13,NW,315,6.0,15.0,45,0.00,,,0.00,Weather View 32 v70,2013-01-20 15:40:00,
2013-01-20 10:45:00,32.0,14.0,30.12,North,360,4.0,15.0,47,0.00,,,0.00,Weather View 32 v70,2013-01-20 15:45:00,
2013-01-20 10:50:00,32.0,14.0,30.12,North,360,9.0,15.0,47,0.00,,,0.00,Weather View 32 v70,2013-01-20 15:50:00,
2013-01-20 10:59:00,32.0,13.0,30.13,North,360,6.0,15.0,45,0.00,,,0.00,Weather View 32 v70,2013-01-20 15:59:00,
2013-01-20 11:04:00,33.0,14.0,30.13,North,360,9.0,15.0,45,0.00,,,0.00,Weather View 32 v70,2013-01-20 16:04:00,
2013-01-20 11:09:00,33.0,13.4,30.13,NNW,337,5.0,15.0,44,0.00,,,0.00,Weather View 32 v70,2013-01-20 16:09:00,
2013-01-20 11:14:00,33.0,13.4,30.14,NW,315,4.0,15.0,44,0.00,,,0.00,Weather View 32 v70,2013-01-20 16:14:00,
2013-01-20 11:19:00,33.0,14.5,30.14,NW,315,6.0,15.0,46,0.00,,,0.00,Weather View 32 v70,2013-01-20 16:19:00,
2013-01-20 11:24:00,34.0,13.8,30.14,North,360,6.0,15.0,43,0.00,,,0.00,Weather View 32 v70,2013-01-20 16:24:00,
2013-01-20 11:30:00,34.0,14.4,30.13,NW,315,5.0,15.0,44,0.00,,,0.00,Weather View 32 v70,2013-01-20 16:30:00,
2013-01-20 11:35:00,34.0,13.3,30.14,North,360,7.0,15.0,42,0.00,,,0.00,Weather View 32 v70,2013-01-20 16:35:00,
2013-01-20 11:40:00,35.0,14.2,30.14,NW,315,5.0,13.0,42,0.00,,,0.00,Weather View 32 v70,2013-01-20 16:40:00,
2013-01-20 11:45:00,34.0,11.6,30.13,WNW,292,4.0,13.0,39,0.00,,,0.00,Weather View 32 v70,2013-01-20 16:45:00,
2013-01-20 11:54:00,35.0,13.7,30.13,NNE,22,2.0,13.0,41,0.00,,,0.00,Weather View 32 v70,2013-01-20 16:54:00,
2013-01-20 11:59:00,36.0,14.0,30.13,North,360,5.0,12.0,40,0.00,,,0.00,Weather View 32 v70,2013-01-20 16:59:00,
2013-01-20 12:04:00,36.0,13.4,30.13,North,360,6.0,12.0,39,0.00,,,0.00,Weather View 32 v70,2013-01-20 17:04:00,
2013-01-20 12:09:00,36.0,14.6,30.13,North,360,1.0,12.0,41,0.00,,,0.00,Weather View 32 v70,2013-01-20 17:09:00,
2013-01-20 12:14:00,36.0,14.0,30.12,NNE,22,1.0,12.0,40,0.00,,,0.00,Weather View 32 v70,2013-01-20 17:14:00,
2013-01-20 12:19:00,37.0,14.9,30.12,North,360,5.0,12.0,40,0.00,,,0.00,Weather View 32 v70,2013-01-20 17:19:00,
2013-01-20 12:24:00,37.0,13.1,30.12,NW,315,8.0,12.0,37,0.00,,,0.00,Weather View 32 v70,2013-01-20 17:24:00,
2013-01-20 12:30:00,36.0,12.2,30.12,NW,315,6.0,12.0,37,0.00,,,0.00,Weather View 32 v70,2013-01-20 17:30:00,
2013-01-20 12:35:00,36.0,12.2,30.12,West,270,5.0,10.0,37,0.00,,,0.00,Weather View 32 v70,2013-01-20 17:35:00,
2013-01-20 12:40:00,36.0,14.0,30.11,NW,315,2.0,10.0,40,0.00,,,0.00,Weather View 32 v70,2013-01-20 17:40:00,
2013-01-20 12:45:00,37.0,13.7,30.10,North,360,6.0,10.0,38,0.00,,,0.00,Weather View 32 v70,2013-01-20 17:45:00,
2013-01-20 12:50:00,38.0,15.2,30.10,West,270,4.0,10.0,39,0.00,,,0.00,Weather View 32 v70,2013-01-20 17:50:00,
2013-01-20 12:59:00,38.0,12.7,30.10,North,360,4.0,10.0,35,0.00,,,0.00,Weather View 32 v70,2013-01-20 17:59:00,
2013-01-20 13:04:00,37.0,12.5,30.10,SW,225,3.0,10.0,36,0.00,,,0.00,Weather View 32 v70,2013-01-20 18:04:00,
2013-01-20 13:09:00,37.0,12.5,30.10,WNW,292,3.0,10.0,36,0.00,,,0.00,Weather View 32 v70,2013-01-20 18:09:00,
2013-01-20 13:14:00,37.0,12.5,30.10,West,270,3.0,10.0,36,0.00,,,0.00,Weather View 32 v70,2013-01-20 18:14:00,
2013-01-20 13:19:00,37.0,12.5,30.10,West,270,2.0,10.0,36,0.00,,,0.00,Weather View 32 v70,2013-01-20 18:19:00,
2013-01-20 13:24:00,38.0,14.6,30.10,NW,315,5.0,10.0,38,0.00,,,0.00,Weather View 32 v70,2013-01-20 18:24:00,
2013-01-20 13:30:00,38.0,13.4,30.10,NW,315,5.0,10.0,36,0.00,,,0.00,Weather View 32 v70,2013-01-20 18:30:00,
2013-01-20 13:35:00,39.0,13.0,30.10,WNW,292,6.0,10.0,34,0.00,,,0.00,Weather View 32 v70,2013-01-20 18:35:00,
2013-01-20 13:40:00,39.0,13.0,30.09,NNW,337,7.0,10.0,34,0.00,,,0.00,Weather View 32 v70,2013-01-20 18:40:00,
2013-01-20 13:49:00,39.0,11.6,30.08,WNW,292,2.0,9.0,32,0.00,,,0.00,Weather View 32 v70,2013-01-20 18:49:00,
2013-01-20 13:54:00,39.0,10.9,30.08,NW,315,2.0,9.0,31,0.00,,,0.00,Weather View 32 v70,2013-01-20 18:54:00,
2013-01-20 13:59:00,39.0,13.0,30.08,West,270,3.0,9.0,34,0.00,,,0.00,Weather View 32 v70,2013-01-20 18:59:00,
2013-01-20 14:04:00,40.0,13.2,30.08,NW,315,6.0,9.0,33,0.00,,,0.00,Weather View 32 v70,2013-01-20 19:04:00,
2013-01-20 14:09:00,40.0,14.5,30.08,NNW,337,5.0,9.0,35,0.00,,,0.00,Weather View 32 v70,2013-01-20 19:09:00,
2013-01-20 14:14:00,40.0,12.5,30.08,NW,315,1.0,9.0,32,0.00,,,0.00,Weather View 32 v70,2013-01-20 19:14:00,
2013-01-20 14:19:00,41.0,13.4,30.08,North,360,5.0,9.0,32,0.00,,,0.00,Weather View 32 v70,2013-01-20 19:19:00,
2013-01-20 14:25:00,41.0,11.1,30.08,WNW,292,4.0,9.0,29,0.00,,,0.00,Weather View 32 v70,2013-01-20 19:25:00,
2013-01-20 14:30:00,40.0,11.8,30.08,West,270,3.0,9.0,31,0.00,,,0.00,Weather View 32 v70,2013-01-20 19:30:00,
2013-01-20 14:35:00,40.0,10.3,30.08,WNW,292,1.0,9.0,29,0.00,,,0.00,Weather View 32 v70,2013-01-20 19:35:00,
2013-01-20 14:44:00,38.0,9.3,30.07,West,270,2.0,9.0,30,0.00,,,0.00,Weather View 32 v70,2013-01-20 19:44:00,
2013-01-20 14:49:00,39.0,11.6,30.07,NNW,337,4.0,9.0,32,0.00,,,0.00,Weather View 32 v70,2013-01-20 19:49:00,
2013-01-20 14:54:00,39.0,11.6,30.07,North,360,5.0,9.0,32,0.00,,,0.00,Weather View 32 v70,2013-01-20 19:54:00,
2013-01-20 14:59:00,40.0,13.9,30.06,NW,315,7.0,9.0,34,0.00,,,0.00,Weather View 32 v70,2013-01-20 19:59:00,
2013-01-20 15:04:00,40.0,11.8,30.06,West,270,6.0,9.0,31,0.00,,,0.00,Weather View 32 v70,2013-01-20 20:04:00,
2013-01-20 15:09:00,40.0,10.3,30.07,NW,315,4.0,10.0,29,0.00,,,0.00,Weather View 32 v70,2013-01-20 20:09:00,
2013-01-20 15:14:00,41.0,9.5,30.07,North,360,1.0,10.0,27,0.00,,,0.00,Weather View 32 v70,2013-01-20 20:14:00,
2013-01-20 15:20:00,42.0,11.2,30.07,West,270,4.0,10.0,28,0.00,,,0.00,Weather View 32 v70,2013-01-20 20:20:00,
2013-01-20 15:25:00,41.0,11.1,30.07,West,270,3.0,10.0,29,0.00,,,0.00,Weather View 32 v70,2013-01-20 20:25:00,
2013-01-20 15:30:00,41.0,9.5,30.07,NW,315,3.0,10.0,27,0.00,,,0.00,Weather View 32 v70,2013-01-20 20:30:00,
2013-01-20 15:39:00,40.0,10.3,30.08,NW,315,4.0,10.0,29,0.00,,,0.00,Weather View 32 v70,2013-01-20 20:39:00,
2013-01-20 15:44:00,40.0,9.5,30.08,West,270,4.0,10.0,28,0.00,,,0.00,Weather View 32 v70,2013-01-20 20:44:00,
2013-01-20 15:49:00,40.0,8.7,30.08,NW,315,6.0,10.0,27,0.00,,,0.00,Weather View 32 v70,2013-01-20 20:49:00,
2013-01-20 15:54:00,39.0,9.4,30.08,NW,315,5.0,10.0,29,0.00,,,0.00,Weather View 32 v70,2013-01-20 20:54:00,
2013-01-20 15:59:00,39.0,9.4,30.09,NNW,337,3.0,10.0,29,0.00,,,0.00,Weather View 32 v70,2013-01-20 20:59:00,
2013-01-20 16:04:00,39.0,9.4,30.09,WNW,292,3.0,10.0,29,0.00,,,0.00,Weather View 32 v70,2013-01-20 21:04:00,
2013-01-20 16:10:00,39.0,9.4,30.09,WNW,292,3.0,10.0,29,0.00,,,0.00,Weather View 32 v70,2013-01-20 21:10:00,
2013-01-20 16:15:00,38.0,9.3,30.09,WNW,292,6.0,11.0,30,0.00,,,0.00,Weather View 32 v70,2013-01-20 21:15:00,
2013-01-20 16:24:00,37.0,9.1,30.09,NW,315,3.0,11.0,31,0.00,,,0.00,Weather View 32 v70,2013-01-20 21:24:00,
2013-01-20 16:30:00,37.0,9.8,30.09,NNW,337,5.0,11.0,32,0.00,,,0.00,Weather View 32 v70,2013-01-20 21:30:00,
2013-01-20 16:35:00,36.0,10.3,30.09,NNW,337,5.0,12.0,34,0.00,,,0.00,Weather View 32 v70,2013-01-20 21:35:00,
2013-01-20 16:44:00,36.0,11.6,30.09,West,270,4.0,12.0,36,0.00,,,0.00,Weather View 32 v70,2013-01-20 21:44:00,
2013-01-20 16:49:00,35.0,11.3,30.10,WSW,247,5.0,12.0,37,0.00,,,0.00,Weather View 32 v70,2013-01-20 21:49:00,
2013-01-20 16:54:00,35.0,11.9,30.10,NW,315,7.0,12.0,38,0.00,,,0.00,Weather View 32 v70,2013-01-20 21:54:00,
2013-01-20 16:59:00,35.0,12.5,30.10,West,270,6.0,12.0,39,0.00,,,0.00,Weather View 32 v70,2013-01-20 21:59:00,
2013-01-20 17:04:00,34.0,11.6,30.10,West,270,6.0,12.0,39,0.00,,,0.00,Weather View 32 v70,2013-01-20 22:04:00,
2013-01-20 17:09:00,34.0,12.8,30.10,NNW,337,6.0,12.0,41,0.00,,,0.00,Weather View 32 v70,2013-01-20 22:09:00,
2013-01-20 17:14:00,34.0,12.8,30.10,WNW,292,6.0,12.0,41,0.00,,,0.00,Weather View 32 v70,2013-01-20 22:14:00,
2013-01-20 17:20:00,33.0,12.4,30.09,WNW,292,6.0,12.0,42,0.00,,,0.00,Weather View 32 v70,2013-01-20 22:20:00,
2013-01-20 17:25:00,33.0,11.8,30.09,WNW,292,7.0,12.0,41,0.00,,,0.00,Weather View 32 v70,2013-01-20 22:25:00,
2013-01-20 17:34:00,33.0,11.8,30.10,NW,315,4.0,12.0,41,0.00,,,0.00,Weather View 32 v70,2013-01-20 22:34:00,
2013-01-20 17:39:00,32.0,10.9,30.09,West,270,4.0,12.0,41,0.00,,,0.00,Weather View 32 v70,2013-01-20 22:39:00,
2013-01-20 17:44:00,32.0,10.4,30.10,North,360,4.0,12.0,40,0.00,,,0.00,Weather View 32 v70,2013-01-20 22:44:00,
2013-01-20 17:49:00,32.0,10.4,30.09,North,360,6.0,12.0,40,0.00,,,0.00,Weather View 32 v70,2013-01-20 22:49:00,
2013-01-20 17:54:00,32.0,11.5,30.09,WNW,292,1.0,12.0,42,0.00,,,0.00,Weather View 32 v70,2013-01-20 22:54:00,
2013-01-20 18:00:00,32.0,11.5,30.09,West,270,8.0,12.0,42,0.00,,,0.00,Weather View 32 v70,2013-01-20 23:00:00,
2013-01-20 18:05:00,31.0,10.0,30.10,West,270,9.0,12.0,41,0.00,,,0.00,Weather View 32 v70,2013-01-20 23:05:00,
2013-01-20 18:14:00,31.0,10.6,30.09,WNW,292,2.0,12.0,42,0.00,,,0.00,Weather View 32 v70,2013-01-20 23:14:00,
2013-01-20 18:19:00,31.0,10.6,30.09,WSW,247,8.0,12.0,42,0.00,,,0.00,Weather View 32 v70,2013-01-20 23:19:00,
2013-01-20 18:29:00,30.0,10.2,30.09,WNW,292,4.0,12.0,43,0.00,,,0.00,Weather View 32 v70,2013-01-20 23:29:00,
2013-01-20 18:35:00,30.0,11.2,30.09,West,270,3.0,11.0,45,0.00,,,0.00,Weather View 32 v70,2013-01-20 23:35:00,
2013-01-20 18:40:00,30.0,11.2,30.09,West,270,3.0,11.0,45,0.00,,,0.00,Weather View 32 v70,2013-01-20 23:40:00,
2013-01-20 18:45:00,30.0,11.7,30.09,West,270,7.0,11.0,46,0.00,,,0.00,Weather View 32 v70,2013-01-20 23:45:00,
2013-01-20 18:54:00,30.0,12.2,30.08,West,270,4.0,11.0,47,0.00,,,0.00,Weather View 32 v70,2013-01-20 23:54:00,
2013-01-20 18:59:00,30.0,12.7,30.08,WNW,292,4.0,11.0,48,0.00,,,0.00,Weather View 32 v70,2013-01-20 23:59:00,
2013-01-20 19:05:00,30.0,12.7,30.08,NW,315,3.0,11.0,48,0.00,,,0.00,Weather View 32 v70,2013-01-21 00:05:00,
2013-01-20 19:10:00,30.0,13.1,30.08,WSW,247,3.0,11.0,49,0.00,,,0.00,Weather View 32 v70,2013-01-21 00:10:00,
2013-01-20 19:20:00,29.0,12.7,30.08,West,270,1.0,11.0,50,0.00,,,0.00,Weather View 32 v70,2013-01-21 00:20:00,
2013-01-20 19:30:00,29.0,12.7,30.08,NW,315,5.0,10.0,50,0.00,,,0.00,Weather View 32 v70,2013-01-21 00:30:00,
2013-01-20 19:39:00,29.0,13.1,30.08,NW,315,4.0,10.0,51,0.00,,,0.00,Weather View 32 v70,2013-01-21 00:39:00,
2013-01-20 19:44:00,29.0,12.7,30.08,NW,315,1.0,10.0,50,0.00,,,0.00,Weather View 32 v70,2013-01-21 00:44:00,
2013-01-20 19:49:00,29.0,13.1,30.07,NNW,337,4.0,10.0,51,0.00,,,0.00,Weather View 32 v70,2013-01-21 00:49:00,
2013-01-20 19:59:00,29.0,12.7,30.07,NW,315,3.0,10.0,50,0.00,,,0.00,Weather View 32 v70,2013-01-21 00:59:00,
2013-01-20 20:04:00,28.0,11.3,30.07,NW,315,3.0,10.0,49,0.00,,,0.00,Weather View 32 v70,2013-01-21 01:04:00,
2013-01-20 20:09:00,28.0,11.7,30.07,NNW,337,1.0,10.0,50,0.00,,,0.00,Weather View 32 v70,2013-01-21 01:09:00,
2013-01-20 20:15:00,28.0,10.8,30.07,NW,315,8.0,13.0,48,0.00,,,0.00,Weather View 32 v70,2013-01-21 01:15:00,
2013-01-20 20:24:00,27.0,9.9,30.07,NNW,337,3.0,13.0,48,0.00,,,0.00,Weather View 32 v70,2013-01-21 01:24:00,
2013-01-20 20:29:00,27.0,9.9,30.07,West,270,1.0,13.0,48,0.00,,,0.00,Weather View 32 v70,2013-01-21 01:29:00,
2013-01-20 20:35:00,27.0,9.9,30.07,West,270,2.0,13.0,48,0.00,,,0.00,Weather View 32 v70,2013-01-21 01:35:00,
2013-01-20 20:44:00,27.0,10.8,30.07,NW,315,3.0,13.0,50,0.00,,,0.00,Weather View 32 v70,2013-01-21 01:44:00,
2013-01-20 20:49:00,27.0,11.3,30.07,NW,315,4.0,13.0,51,0.00,,,0.00,Weather View 32 v70,2013-01-21 01:49:00,
2013-01-20 20:55:00,27.0,11.3,30.07,West,270,6.0,13.0,51,0.00,,,0.00,Weather View 32 v70,2013-01-21 01:55:00,
2013-01-20 21:04:00,27.0,11.3,30.07,WNW,292,2.0,13.0,51,0.00,,,0.00,Weather View 32 v70,2013-01-21 02:04:00,
2013-01-20 21:09:00,27.0,11.7,30.07,WNW,292,4.0,13.0,52,0.00,,,0.00,Weather View 32 v70,2013-01-21 02:09:00,
2013-01-20 21:19:00,27.0,12.6,30.07,WNW,292,1.0,7.0,54,0.00,,,0.00,Weather View 32 v70,2013-01-21 02:19:00,
2013-01-20 21:25:00,27.0,13.0,30.07,WNW,292,1.0,7.0,55,0.00,,,0.00,Weather View 32 v70,2013-01-21 02:25:00,
2013-01-20 21:31:00,27.0,13.4,30.07,WNW,292,2.0,10.0,56,0.00,,,0.00,Weather View 32 v70,2013-01-21 02:31:00,
2013-01-20 21:39:00,27.0,13.8,30.07,NW,315,6.0,10.0,57,0.00,,,0.00,Weather View 32 v70,2013-01-21 02:39:00,
2013-01-20 21:44:00,26.0,12.8,30.07,WNW,292,1.0,10.0,57,0.00,,,0.00,Weather View 32 v70,2013-01-21 02:44:00,
2013-01-20 21:49:00,26.0,12.8,30.07,WNW,292,1.0,10.0,57,0.00,,,0.00,Weather View 32 v70,2013-01-21 02:49:00,
2013-01-20 21:54:00,26.0,12.8,30.07,West,270,4.0,10.0,57,0.00,,,0.00,Weather View 32 v70,2013-01-21 02:54:00,
2013-01-20 22:00:00,26.0,13.2,30.07,NW,315,2.0,10.0,58,0.00,,,0.00,Weather View 32 v70,2013-01-21 03:00:00,
2013-01-20 22:10:00,26.0,13.6,30.07,NNW,337,0.0,10.0,59,0.00,,,0.00,Weather View 32 v70,2013-01-21 03:10:00,
2013-01-20 22:19:00,25.0,13.4,30.07,NW,315,2.0,10.0,61,0.00,,,0.00,Weather View 32 v70,2013-01-21 03:19:00,
2013-01-20 22:25:00,25.0,14.2,30.07,NW,315,2.0,10.0,63,0.00,,,0.00,Weather View 32 v70,2013-01-21 03:25:00,
2013-01-20 22:31:00,25.0,13.8,30.07,WNW,292,3.0,8.0,62,0.00,,,0.00,Weather View 32 v70,2013-01-21 03:31:00,
2013-01-20 22:39:00,25.0,13.8,30.06,North,360,1.0,7.0,62,0.00,,,0.00,Weather View 32 v70,2013-01-21 03:39:00,
2013-01-20 22:44:00,25.0,13.8,30.06,West,270,3.0,7.0,62,0.00,,,0.00,Weather View 32 v70,2013-01-21 03:44:00,
2013-01-20 22:50:00,25.0,13.8,30.06,WNW,292,0.0,7.0,62,0.00,,,0.00,Weather View 32 v70,2013-01-21 03:50:00,
2013-01-20 22:59:00,26.0,14.4,30.05,West,270,6.0,8.0,61,0.00,,,0.00,Weather View 32 v70,2013-01-21 03:59:00,
2013-01-20 23:04:00,26.0,14.4,30.05,West,270,3.0,8.0,61,0.00,,,0.00,Weather View 32 v70,2013-01-21 04:04:00,
2013-01-20 23:09:00,26.0,14.8,30.05,West,270,2.0,9.0,62,0.00,,,0.00,Weather View 32 v70,2013-01-21 04:09:00,
2013-01-20 23:14:00,26.0,14.4,30.06,West,270,2.0,11.0,61,0.00,,,0.00,Weather View 32 v70,2013-01-21 04:14:00,
2013-01-20 23:24:00,26.0,14.8,30.06,West,270,6.0,11.0,62,0.00,,,0.00,Weather View 32 v70,2013-01-21 04:24:00,
2013-01-20 23:29:00,26.0,15.1,30.06,WNW,292,6.0,11.0,63,0.00,,,0.00,Weather View 32 v70,2013-01-21 04:29:00,
2013-01-20 23:34:00,25.0,14.2,30.06,WNW,292,4.0,11.0,63,0.00,,,0.00,Weather View 32 v70,2013-01-21 04:34:00,
2013-01-20 23:39:00,25.0,14.2,30.06,North,360,2.0,11.0,63,0.00,,,0.00,Weather View 32 v70,2013-01-21 04:39:00,
2013-01-20 23:49:00,25.0,14.5,30.06,West,270,6.0,11.0,64,0.00,,,0.00,Weather View 32 v70,2013-01-21 04:49:00,
2013-01-20 23:54:00,25.0,14.5,30.05,WNW,292,3.0,11.0,64,0.00,,,0.00,Weather View 32 v70,2013-01-21 04:54:00,
2013-01-20 23:59:00,25.0,14.5,30.06,WNW,292,7.0,11.0,64,0.00,,,0.00,Weather View 32 v70,2013-01-21 04:59:00,